Home   Weather   1°18'N, 103°51'E   Past weeks
Flag for Singapore

Past Weather in 1°18'N, 103°51'E, Singapore — Yesterday and Last 2 Weeks

Now
88 °F

Partly sunny.


Feels Like: 96 °F
Forecast: 90 / 76 °F
Wind: 17 mph from Northeast

Location: Singapore / Paya Lebar

Current Time: Feb 22, 2020 at 1:22:21 pm

Latest Report: Feb 22, 2020 at 1:00 pm


Visibility: N/A

Pressure: 29.95 "Hg

Humidity: 62%

Dew Point: 73 °F

Location of 1°18'N, 103°51'ELocation

Past Weather in 1°18'N, 103°51'E — Graph

°F

1°18'N, 103°51'E Temperature Yesterday

Maximum temperature yesterday: 86 °F (at 5:00 pm)
Minimum temperature yesterday: 77 °F (at 6:00 am)
Average temperature yesterday: 82 °F

High & Low Weather Summary for the Past Weeks

 TemperatureHumidityPressure
High93 °F (Feb 14, 4:00 pm)100% (Feb 12, 6:00 am)29.98 "Hg (Feb 12, 6:00 am)
Low75 °F (Feb 10, 12:00 am)49% (Feb 8, 3:00 pm)29.74 "Hg (Feb 14, 5:00 pm)
Average83 °F78%29.88 "Hg
* Reported Feb 7 12:00 pm — Feb 22 12:00 pm, 1°18'N, 103°51'E. Weather by CustomWeather, © 2020

Note: Actual official high and low records may vary slightly from our data, if they occured in-between our weather recording intervals... More about our weather records

1°18'N, 103°51'E Weather History for the Previous 24 Hours

Scroll right to see more
 ConditionsComfort  
Time TempWeatherWind HumidityBarometerVisibility
12:00 pm
Sat, Feb 22
86 °FBroken clouds.15 mph66%29.98 "HgN/A
11:00 am86 °FPartly sunny.16 mph70%29.98 "HgN/A
10:00 am82 °FSprinkles. Partly sunny.14 mph79%29.98 "HgN/A
9:00 am81 °FPartly sunny.10 mph84%29.95 "HgN/A
8:00 am79 °FPartly sunny.6 mph89%29.92 "HgN/A
7:00 am79 °FPartly cloudy.3 mph89%29.89 "HgN/A
6:00 am79 °FPartly cloudy.6 mph89%29.89 "HgN/A
5:15 am79 °FLight rain. Passing clouds.13 mph89%29.89 "Hg5 mi
5:00 am79 °FRain. Passing clouds.9 mph89%29.89 "Hg4 mi
4:00 am79 °FLight rain. Passing clouds.8 mph89%29.89 "Hg5 mi
3:00 am81 °FPassing clouds.8 mph84%29.92 "HgN/A
2:00 am81 °FPassing clouds.10 mph84%29.92 "HgN/A
1:00 am82 °FPassing clouds.10 mph79%29.95 "HgN/A
12:00 am81 °FPassing clouds.9 mph84%29.95 "HgN/A
11:00 pm
Fri, Feb 21
82 °FPartly cloudy.8 mph79%29.95 "HgN/A
10:00 pm82 °FPassing clouds.13 mph79%29.95 "HgN/A
9:00 pm82 °FPassing clouds.14 mph79%29.92 "HgN/A
8:00 pm82 °FPassing clouds.16 mph79%29.89 "HgN/A
7:00 pm84 °FPartly sunny.18 mph74%29.86 "HgN/A
6:00 pm84 °FPartly sunny.20 mph74%29.83 "HgN/A
5:00 pm86 °FBroken clouds.22 mph70%29.83 "HgN/A
4:00 pm84 °FPartly sunny.17 mph79%29.83 "HgN/A
3:00 pm84 °FPartly sunny.15 mph74%29.86 "HgN/A
2:00 pm81 °FSprinkles. Partly sunny.15 mph89%29.89 "Hg4 mi
1:00 pm82 °FSprinkles. Partly sunny.22 mph84%29.92 "Hg4 mi
Weather by CustomWeather, © 2020

See weather overview

Advertising